Deelen, Netherlands

5:22 PM CEST on April 24, 2018 (GMT +0200)
Deelen Air Base

Weather History for EHDL - February, 2013

Change the Weather History Date:

Thursday, February 28, 2013

  Actual Average Record
Temperature  
Mean Temperature 36 °F -  
Max Temperature 41 °F 48 °F 57 °F (1997)
Min Temperature 32 °F 35 °F 15 °F (2004)
Degree Days  
Heating Degree Days 28    
Moisture  
Dew Point 31 °F    
Average Humidity 84    
Maximum Humidity 93    
Minimum Humidity 65    
Precipitation  
Precipitation 0.00 in - - ()
Sea Level Pressure  
Sea Level Pressure 30.37 in    
Wind  
Wind Speed 4 mph ()    
Max Wind Speed 7 mph    
Max Gust Speed -    
Visibility 4.7 miles    
Events      
Averages and records for this station are not official NWS values.
T = Trace of Precipitation, MM = Missing Value Source: Averaged Metar Reports

Daily Weather History Graph

Daily Weather History Graph

Search for Another Location

Airport or City:

Astronomy

Feb. 28, 2013 Rise Set
Actual Time 7:24 AM CET 6:14 PM CET
Civil Twilight 6:50 AM CET 6:48 PM CET
Nautical Twilight 6:11 AM CET 7:27 PM CET
Astronomical Twilight 5:32 AM CET 8:07 PM CET
Moon 9:55 PM CET (2/28) 7:58 AM CET (2/28)
Length of Visible Light 11h 58m
Length of Day
10h 50m
Waning Gibbous, 92% of the Moon is Illuminated
Feb 28
Waning Gibbous
Mar 4
Last Quarter
Mar 11
New
Mar 19
First Quarter
Mar 27
Full

Hourly Weather History & Observations

Time (CET) Temp. Windchill Dew Point Humidity Pressure Visibility Wind Dir Wind Speed Gust Speed Precip Events Conditions
12:25 AM 33.8 °F 29.6 °F 30.2 °F 87% 30.45 in 5.6 mi NE 4.6 mph - N/A   Overcast
12:55 AM 33.8 °F 29.6 °F 30.2 °F 87% 30.45 in 5.0 mi ENE 4.6 mph - N/A   Overcast
1:25 AM 33.8 °F 29.6 °F 30.2 °F 87% 30.42 in 4.3 mi ENE 4.6 mph - N/A   Overcast
1:55 AM 33.8 °F 29.6 °F 30.2 °F 87% 30.42 in 5.0 mi NE 4.6 mph - N/A   Overcast
2:25 AM 33.8 °F 30.8 °F 30.2 °F 87% 30.42 in 4.3 mi NE 3.5 mph - N/A   Overcast
2:55 AM 33.8 °F 30.8 °F 30.2 °F 87% 30.42 in 4.3 mi NNE 3.5 mph - N/A   Overcast
3:25 AM 33.8 °F 29.6 °F 30.2 °F 87% 30.39 in 4.3 mi NNE 4.6 mph - N/A   Overcast
3:55 AM 33.8 °F 30.8 °F 30.2 °F 87% 30.39 in 3.7 mi NNE 3.5 mph - N/A   Overcast
4:25 AM 33.8 °F 29.6 °F 30.2 °F 87% 30.39 in 3.7 mi NNE 4.6 mph - N/A   Overcast
4:55 AM 32.0 °F 27.5 °F 30.2 °F 93% 30.39 in 3.1 mi NNE 4.6 mph - N/A   Overcast
5:25 AM 32.0 °F 27.5 °F 30.2 °F 93% 30.39 in 3.1 mi NE 4.6 mph - N/A   Overcast
5:55 AM 32.0 °F 27.5 °F 30.2 °F 93% 30.36 in 3.1 mi NE 4.6 mph - N/A   Overcast
6:25 AM 32.0 °F 27.5 °F 30.2 °F 93% 30.36 in 3.1 mi ENE 4.6 mph - N/A   Overcast
6:55 AM 33.8 °F 29.6 °F 30.2 °F 87% 30.36 in 3.7 mi ENE 4.6 mph - N/A   Overcast
7:25 AM 33.8 °F 28.6 °F 30.2 °F 87% 30.36 in 4.3 mi East 5.8 mph - N/A   Overcast
7:55 AM 33.8 °F 30.8 °F 30.2 °F 87% 30.36 in 4.3 mi ENE 3.5 mph - N/A   Overcast
8:25 AM 33.8 °F 29.6 °F 30.2 °F 87% 30.39 in 4.3 mi ENE 4.6 mph - N/A   Overcast
8:55 AM 33.8 °F 28.6 °F 30.2 °F 87% 30.39 in 4.3 mi NE 5.8 mph - N/A   Overcast
9:25 AM 33.8 °F 29.6 °F 30.2 °F 87% 30.39 in 5.0 mi ENE 4.6 mph - N/A   Overcast
9:55 AM 33.8 °F 29.6 °F 30.2 °F 87% 30.39 in 5.0 mi ENE 4.6 mph - N/A   Overcast
10:25 AM 33.8 °F 27.7 °F 30.2 °F 87% 30.39 in 5.0 mi NE 6.9 mph - N/A   Overcast
10:55 AM 33.8 °F 28.6 °F 30.2 °F 87% 30.39 in 5.0 mi ENE 5.8 mph - N/A   Overcast
11:25 AM 35.6 °F 31.7 °F 30.2 °F 81% 30.39 in 5.0 mi NE 4.6 mph - N/A   Overcast
11:55 AM 35.6 °F 30.7 °F 30.2 °F 81% 30.39 in 5.6 mi ENE 5.8 mph - N/A   Overcast
12:06 PM 35.6 °F 31.7 °F 30.2 °F 81% 30.39 in 5.6 mi ENE 4.6 mph - N/A   Overcast
12:25 PM 35.6 °F 30.7 °F 30.2 °F 81% 30.39 in 5.6 mi East 5.8 mph - N/A   Overcast
12:55 PM 35.6 °F 30.7 °F 30.2 °F 81% 30.39 in 5.6 mi NNE 5.8 mph - N/A   Overcast
1:25 PM 35.6 °F 31.7 °F 30.2 °F 81% 30.36 in 5.6 mi NE 4.6 mph - N/A   Haze
1:55 PM 37.4 °F 33.8 °F 30.2 °F 75% 30.36 in 5.6 mi NE 4.6 mph - N/A   Haze
2:25 PM 37.4 °F 33.8 °F 30.2 °F 75% 30.36 in 5.6 mi East 4.6 mph - N/A   Haze
2:55 PM 39.2 °F 35.9 °F 30.2 °F 70% 30.36 in 5.6 mi East 4.6 mph - N/A   Haze
3:25 PM 39.2 °F 37.0 °F 30.2 °F 70% 30.33 in 6.2 mi ENE 3.5 mph - N/A   Mostly Cloudy
3:55 PM 41.0 °F 38.0 °F 30.2 °F 65% 30.33 in 6.2 mi SE 4.6 mph - N/A   Partly Cloudy
3:57 PM 39.2 °F 35.9 °F 30.2 °F 70% 30.33 in 6.2 mi ESE 4.6 mph - N/A   Partly Cloudy
4:25 PM 39.2 °F 35.9 °F 30.2 °F 70% 30.33 in 6.2 mi ENE 4.6 mph - N/A   Unknown
4:55 PM 39.2 °F 37.0 °F 30.2 °F 70% 30.33 in 6.2 mi NNE 3.5 mph - N/A   Unknown
5:25 PM 39.2 °F 35.9 °F 30.2 °F 70% 30.33 in 6.2 mi NNE 4.6 mph - N/A   Unknown
5:55 PM 37.4 °F 33.8 °F 30.2 °F 75% 30.33 in 6.2 mi NE 4.6 mph - N/A   Unknown
6:25 PM 33.8 °F 28.6 °F 28.4 °F 81% 30.33 in 5.0 mi NE 5.8 mph - N/A   Haze
6:55 PM 32.0 °F 27.5 °F 28.4 °F 87% 30.33 in 4.3 mi NNE 4.6 mph - N/A   Mist
7:25 PM 32.0 °F 28.7 °F 30.2 °F 93% 30.33 in 4.3 mi North 3.5 mph - N/A   Overcast
7:55 PM 33.8 °F 30.8 °F 30.2 °F 87% 30.33 in 3.7 mi North 3.5 mph - N/A   Overcast
8:25 PM 33.8 °F 30.8 °F 30.2 °F 87% 30.33 in 3.7 mi NNW 3.5 mph - N/A   Overcast
8:55 PM 35.6 °F 29.9 °F 32.0 °F 87% 30.33 in 4.3 mi North 6.9 mph - N/A   Overcast
9:25 PM 35.6 °F 30.7 °F 33.8 °F 93% 30.33 in 3.7 mi North 5.8 mph - N/A   Overcast
9:55 PM 35.6 °F 30.7 °F 33.8 °F 93% 30.33 in 3.1 mi NNE 5.8 mph - N/A   Overcast
10:25 PM 35.6 °F 32.8 °F 33.8 °F 93% 30.33 in 3.1 mi North 3.5 mph - N/A   Overcast
10:55 PM 35.6 °F - 33.8 °F 93% 30.33 in 4.3 mi NNE 2.3 mph - N/A   Overcast
11:25 PM 35.6 °F - 33.8 °F 93% 30.33 in 5.0 mi North 2.3 mph - N/A   Overcast
11:55 PM 35.6 °F 32.8 °F 33.8 °F 93% 30.33 in 5.0 mi NNW 3.5 mph - N/A   Overcast